contact:dominique.lefevre@mio.osupytheas.fr, maurice.libes@osupytheas.fr, didier.mallarino@osupytheas.fr
Project:EMSO http://www.emso-fr.org/EMSO-France
Depth: 2436.0 m
Title:EMSO Ligure Ouest : Data MII capteur CSTAR
DateTime,Latitude,Longitude,Instrument_Serial,Reference_Counts,Signal_Counts,Corrected_Signal_raw_counts,Calculated_Beam_c_inverse_meters,Internal_thermistor_counts
DateTime,Latitude,Longitude,Instrument_Serial,Reference_Counts,Signal_Counts,Corrected_Signal_raw_counts,Calculated_Beam_c_inverse_meters,Internal_thermistor_counts
2023-05-07T00:02:25,42.805,6.029,CST-1368DR,4305,4711,11617,01.183,551
2023-05-07T00:05:27,42.805,6.029,CST-1368DR,4305,4710,11617,01.183,551
2023-05-07T00:08:28,42.805,6.029,CST-1368DR,4305,4711,11617,01.183,552
2023-05-07T00:11:30,42.805,6.029,CST-1368DR,4305,4711,11619,01.183,552
2023-05-07T00:14:31,42.805,6.029,CST-1368DR,4305,4711,11619,01.183,551
2023-05-07T00:17:33,42.805,6.029,CST-1368DR,4305,4709,11614,01.184,552
2023-05-07T00:20:35,42.805,6.029,CST-1368DR,4305,4707,11609,01.186,552
2023-05-07T00:23:36,42.805,6.029,CST-1368DR,4305,4710,11616,01.184,552
2023-05-07T00:26:38,42.805,6.029,CST-1368DR,4305,4710,11616,01.184,551
2023-05-07T00:29:39,42.805,6.029,CST-1368DR,4305,4707,11609,01.186,552
2023-05-07T00:32:41,42.805,6.029,CST-1368DR,4305,4708,11611,01.185,552
2023-05-07T00:35:42,42.805,6.029,CST-1368DR,4305,4710,11616,01.184,552
2023-05-07T00:38:44,42.805,6.029,CST-1368DR,4305,4710,11617,01.183,552
2023-05-07T00:41:46,42.805,6.029,CST-1368DR,4305,4709,11612,01.185,552
2023-05-07T00:44:47,42.805,6.029,CST-1368DR,4305,4709,11612,01.185,552
2023-05-07T00:47:49,42.805,6.029,CST-1368DR,4305,4705,11603,01.188,552
2023-05-07T00:50:50,42.805,6.029,CST-1368DR,4305,4712,11622,01.182,551
2023-05-07T00:53:52,42.805,6.029,CST-1368DR,4305,4711,11617,01.183,552
2023-05-07T00:56:53,42.805,6.029,CST-1368DR,4305,4715,11629,01.179,552
2023-05-07T00:59:55,42.805,6.029,CST-1368DR,4305,4707,11609,01.186,552
2023-05-07T01:02:57,42.805,6.029,CST-1368DR,4305,4709,11614,01.184,552
2023-05-07T01:05:58,42.805,6.029,CST-1368DR,4305,4709,11613,01.185,552
2023-05-07T01:09:00,42.805,6.029,CST-1368DR,4304,4603,11355,01.275,552
2023-05-07T01:12:01,42.805,6.029,CST-1368DR,4305,4709,11614,01.184,552
2023-05-07T01:15:03,42.805,6.029,CST-1368DR,4305,4712,11620,01.182,552
2023-05-07T01:18:05,42.805,6.029,CST-1368DR,4305,4712,11622,01.182,552
2023-05-07T01:21:06,42.805,6.029,CST-1368DR,4305,4710,11616,01.184,552
2023-05-07T01:24:08,42.805,6.029,CST-1368DR,4305,4711,11619,01.183,551
2023-05-07T01:27:09,42.805,6.029,CST-1368DR,4305,4712,11620,01.182,552
2023-05-07T01:30:11,42.805,6.029,CST-1368DR,4305,4711,11617,01.183,551
2023-05-07T01:33:12,42.805,6.029,CST-1368DR,4305,4712,11620,01.182,552
2023-05-07T01:36:14,42.805,6.029,CST-1368DR,4305,4712,11620,01.182,552
2023-05-07T01:39:16,42.805,6.029,CST-1368DR,4305,4705,11603,01.188,551
2023-05-07T01:42:17,42.805,6.029,CST-1368DR,4305,4709,11613,01.185,552
2023-05-07T01:45:19,42.805,6.029,CST-1368DR,4305,4710,11617,01.183,552
2023-05-07T01:48:20,42.805,6.029,CST-1368DR,4305,4711,11619,01.183,552
2023-05-07T01:51:22,42.805,6.029,CST-1368DR,4305,4710,11615,01.184,551
2023-05-07T01:54:23,42.805,6.029,CST-1368DR,4305,4710,11615,01.184,552
2023-05-07T01:57:25,42.805,6.029,CST-1368DR,4305,4712,11621,01.182,551
2023-05-07T02:00:27,42.805,6.029,CST-1368DR,4305,4710,11615,01.184,552
2023-05-07T02:03:28,42.805,6.029,CST-1368DR,4305,4711,11619,01.183,552
2023-05-07T02:06:30,42.805,6.029,CST-1368DR,4305,4709,11614,01.184,552
2023-05-07T02:09:31,42.805,6.029,CST-1368DR,4305,4717,11633,01.178,552
2023-05-07T02:12:33,42.805,6.029,CST-1368DR,4305,4702,11597,01.190,551
2023-05-07T02:15:35,42.805,6.029,CST-1368DR,4305,4711,11619,01.183,552
2023-05-07T02:18:36,42.805,6.029,CST-1368DR,4305,4709,11614,01.184,551
2023-05-07T02:21:38,42.805,6.029,CST-1368DR,4305,4712,11620,01.182,551
2023-05-07T02:24:39,42.805,6.029,CST-1368DR,4305,4746,11705,01.153,552
2023-05-07T02:27:41,42.805,6.029,CST-1368DR,4305,4744,11701,01.154,551
2023-05-07T02:30:42,42.805,6.029,CST-1368DR,4305,4746,11704,01.153,552
2023-05-07T02:33:44,42.805,6.029,CST-1368DR,4305,4743,11696,01.156,552
2023-05-07T02:36:46,42.805,6.029,CST-1368DR,4305,4744,11700,01.155,551
2023-05-07T02:39:47,42.805,6.029,CST-1368DR,4305,4745,11703,01.154,552
2023-05-07T02:42:49,42.805,6.029,CST-1368DR,4305,4744,11699,01.155,552
2023-05-07T02:45:50,42.805,6.029,CST-1368DR,4305,4744,11699,01.155,551
2023-05-07T02:48:52,42.805,6.029,CST-1368DR,4305,4745,11702,01.154,552
2023-05-07T02:51:53,42.805,6.029,CST-1368DR,4305,4743,11697,01.156,551
2023-05-07T02:54:55,42.805,6.029,CST-1368DR,4305,4743,11697,01.156,552
2023-05-07T02:57:57,42.805,6.029,CST-1368DR,4305,4743,11697,01.156,552
2023-05-07T03:00:58,42.805,6.029,CST-1368DR,4305,4743,11697,01.156,551
2023-05-07T03:04:00,42.805,6.029,CST-1368DR,4305,4743,11697,01.156,551
2023-05-07T03:07:01,42.805,6.029,CST-1368DR,4305,4744,11700,01.155,552
2023-05-07T03:10:03,42.805,6.029,CST-1368DR,4305,4719,11638,01.176,551
2023-05-07T03:13:05,42.805,6.029,CST-1368DR,4305,4739,11688,01.159,552
2023-05-07T03:16:06,42.805,6.029,CST-1368DR,4305,4739,11688,01.159,552
2023-05-07T03:19:08,42.805,6.029,CST-1368DR,4305,4735,11678,01.162,552
2023-05-07T03:22:09,42.805,6.029,CST-1368DR,4305,4736,11680,01.162,552
2023-05-07T03:25:11,42.805,6.029,CST-1368DR,4305,4738,11685,01.160,552
2023-05-07T03:28:12,42.805,6.029,CST-1368DR,4305,4737,11683,01.161,552
2023-05-07T03:31:14,42.805,6.029,CST-1368DR,4305,4742,11696,01.156,552
2023-05-07T03:34:16,42.805,6.029,CST-1368DR,4305,4739,11687,01.159,552
2023-05-07T03:37:17,42.805,6.029,CST-1368DR,4305,4738,11685,01.160,551
2023-05-07T03:40:19,42.805,6.029,CST-1368DR,4305,4738,11684,01.160,551
2023-05-07T03:43:20,42.805,6.029,CST-1368DR,4305,4742,11694,01.157,552
2023-05-07T03:46:22,42.805,6.029,CST-1368DR,4305,4739,11688,01.159,552
2023-05-07T03:49:24,42.805,6.029,CST-1368DR,4305,4739,11686,01.160,552
2023-05-07T03:52:25,42.805,6.029,CST-1368DR,4305,4734,11675,01.163,552
2023-05-07T03:55:27,42.805,6.029,CST-1368DR,4305,4739,11688,01.159,551
2023-05-07T03:58:28,42.805,6.029,CST-1368DR,4305,4742,11694,01.157,552
2023-05-07T04:01:30,42.805,6.029,CST-1368DR,4305,4736,11680,01.162,552
2023-05-07T04:04:31,42.805,6.029,CST-1368DR,4305,4738,11685,01.160,552
2023-05-07T04:07:33,42.805,6.029,CST-1368DR,4305,4736,11679,01.162,552
2023-05-07T04:10:35,42.805,6.029,CST-1368DR,4305,4737,11683,01.161,551
2023-05-07T04:13:36,42.805,6.029,CST-1368DR,4305,4735,11677,01.163,552
2023-05-07T04:16:38,42.805,6.029,CST-1368DR,4305,4739,11688,01.159,552
2023-05-07T04:19:39,42.805,6.029,CST-1368DR,4305,4739,11688,01.159,552
2023-05-07T04:22:41,42.805,6.029,CST-1368DR,4305,4737,11682,01.161,552
2023-05-07T04:25:42,42.805,6.029,CST-1368DR,4305,4737,11681,01.161,552
2023-05-07T04:28:44,42.805,6.029,CST-1368DR,4305,4735,11678,01.162,551
2023-05-07T04:31:48,42.805,6.029,CST-1368DR,4305,4735,11678,01.162,552
2023-05-07T04:34:49,42.805,6.029,CST-1368DR,4305,4737,11682,01.161,551
2023-05-07T04:37:51,42.805,6.029,CST-1368DR,4305,4736,11680,01.162,552
2023-05-07T04:40:52,42.805,6.029,CST-1368DR,4305,4735,11678,01.162,552
2023-05-07T04:43:54,42.805,6.029,CST-1368DR,4305,4737,11682,01.161,552
2023-05-07T04:46:56,42.805,6.029,CST-1368DR,4305,4730,11666,01.166,552
2023-05-07T04:49:57,42.805,6.029,CST-1368DR,4305,4734,11674,01.164,552
2023-05-07T04:52:59,42.805,6.029,CST-1368DR,4305,4734,11675,01.163,552
2023-05-07T04:56:00,42.805,6.029,CST-1368DR,4305,4734,11674,01.164,551
2023-05-07T04:59:02,42.805,6.029,CST-1368DR,4305,4738,11686,01.160,552
2023-05-07T05:02:04,42.805,6.029,CST-1368DR,4305,4735,11678,01.162,552
2023-05-07T05:05:05,42.805,6.029,CST-1368DR,4305,4743,11697,01.156,552
2023-05-07T05:08:07,42.805,6.029,CST-1368DR,4305,4738,11685,01.160,552
2023-05-07T05:11:08,42.805,6.029,CST-1368DR,4305,4739,11686,01.160,552
2023-05-07T05:14:10,42.805,6.029,CST-1368DR,4305,4735,11678,01.162,551
2023-05-07T05:17:11,42.805,6.029,CST-1368DR,4305,4736,11680,01.162,552
2023-05-07T05:20:13,42.805,6.029,CST-1368DR,4305,4737,11681,01.161,552
2023-05-07T05:23:15,42.805,6.029,CST-1368DR,4305,4737,11683,01.161,552
2023-05-07T05:26:16,42.805,6.029,CST-1368DR,4304,4632,11426,01.250,552
2023-05-07T05:29:18,42.805,6.029,CST-1368DR,4305,4738,11686,01.160,552
2023-05-07T05:32:19,42.805,6.029,CST-1368DR,4305,4732,11669,01.165,552
2023-05-07T05:35:21,42.805,6.029,CST-1368DR,4305,4730,11665,01.167,552
2023-05-07T05:38:22,42.805,6.029,CST-1368DR,4305,4746,11704,01.153,551
2023-05-07T05:41:24,42.805,6.029,CST-1368DR,4305,4740,11691,01.158,552
2023-05-07T05:44:26,42.805,6.029,CST-1368DR,4305,4740,11690,01.158,552
2023-05-07T05:47:27,42.805,6.029,CST-1368DR,4305,4736,11681,01.161,551
2023-05-07T05:50:29,42.805,6.029,CST-1368DR,4305,4741,11692,01.158,551
2023-05-07T05:53:30,42.805,6.029,CST-1368DR,4305,4737,11683,01.161,551
2023-05-07T05:56:32,42.805,6.029,CST-1368DR,4305,4738,11686,01.160,552
2023-05-07T05:59:34,42.805,6.029,CST-1368DR,4305,4739,11688,01.159,551
2023-05-07T06:02:35,42.805,6.029,CST-1368DR,4305,4739,11687,01.159,552
2023-05-07T06:05:37,42.805,6.029,CST-1368DR,4305,4738,11685,01.160,552
2023-05-07T06:08:38,42.805,6.029,CST-1368DR,4305,4739,11687,01.159,551
2023-05-07T06:11:40,42.805,6.029,CST-1368DR,4305,4742,11694,01.157,552
2023-05-07T06:14:41,42.805,6.029,CST-1368DR,4305,4740,11689,01.159,552
2023-05-07T06:17:43,42.805,6.029,CST-1368DR,4305,4744,11699,01.155,552
2023-05-07T06:20:45,42.805,6.029,CST-1368DR,4305,4739,11688,01.159,552
2023-05-07T06:23:46,42.805,6.029,CST-1368DR,4305,4737,11683,01.161,552
2023-05-07T06:26:48,42.805,6.029,CST-1368DR,4305,4740,11690,01.158,551
2023-05-07T06:29:49,42.805,6.029,CST-1368DR,4305,4749,11712,01.151,551
2023-05-07T06:32:51,42.805,6.029,CST-1368DR,4305,4740,11689,01.159,552
2023-05-07T06:35:52,42.805,6.029,CST-1368DR,4305,4697,11583,01.195,552
2023-05-07T06:38:54,42.805,6.029,CST-1368DR,4305,4726,11656,01.170,551
2023-05-07T06:41:56,42.805,6.029,CST-1368DR,4305,4725,11654,01.171,552
2023-05-07T06:44:57,42.805,6.029,CST-1368DR,4305,4723,11648,01.173,552
2023-05-07T06:47:59,42.805,6.029,CST-1368DR,4305,4725,11653,01.171,552
2023-05-07T06:51:00,42.805,6.029,CST-1368DR,4305,4729,11662,01.168,552
2023-05-07T06:54:02,42.805,6.029,CST-1368DR,4305,4732,11670,01.165,551
2023-05-07T06:57:04,42.805,6.029,CST-1368DR,4305,4724,11649,01.172,552
2023-05-07T07:00:05,42.805,6.029,CST-1368DR,4305,4722,11644,01.174,551
2023-05-07T07:03:07,42.805,6.029,CST-1368DR,4305,4721,11642,01.175,552
2023-05-07T07:06:08,42.805,6.029,CST-1368DR,4305,4718,11636,01.177,552
2023-05-07T07:09:10,42.805,6.029,CST-1368DR,4305,4714,11626,01.180,551
2023-05-07T07:12:11,42.805,6.029,CST-1368DR,4305,4706,11605,01.187,552
2023-05-07T07:15:13,42.805,6.029,CST-1368DR,4305,4707,11609,01.186,551
2023-05-07T07:18:15,42.805,6.029,CST-1368DR,4305,4721,11643,01.174,552
2023-05-07T07:21:16,42.805,6.029,CST-1368DR,4305,4716,11630,01.179,552
2023-05-07T07:24:18,42.805,6.029,CST-1368DR,4305,4716,11630,01.179,551
2023-05-07T07:27:19,42.805,6.029,CST-1368DR,4305,4710,11617,01.183,552
2023-05-07T07:30:21,42.805,6.029,CST-1368DR,4305,4705,11603,01.188,552
2023-05-07T07:33:22,42.805,6.029,CST-1368DR,4304,4656,11486,01.229,552
2023-05-07T07:36:24,42.805,6.029,CST-1368DR,4305,4703,11599,01.190,551
2023-05-07T07:39:26,42.805,6.029,CST-1368DR,4305,4713,11623,01.181,552
2023-05-07T07:42:27,42.805,6.029,CST-1368DR,4305,4710,11616,01.184,552
2023-05-07T07:45:29,42.805,6.029,CST-1368DR,4305,4717,11633,01.178,552
2023-05-07T07:48:30,42.805,6.029,CST-1368DR,4305,4705,11604,01.188,552
2023-05-07T07:51:32,42.805,6.029,CST-1368DR,4304,4703,11602,01.188,551
2023-05-07T07:54:34,42.805,6.029,CST-1368DR,4305,4708,11611,01.185,552
2023-05-07T07:57:35,42.805,6.029,CST-1368DR,4305,4707,11608,01.186,551
2023-05-07T08:00:37,42.805,6.029,CST-1368DR,4305,4710,11615,01.184,551
2023-05-07T08:03:38,42.805,6.029,CST-1368DR,4305,4713,11624,01.181,552
2023-05-07T08:06:40,42.805,6.029,CST-1368DR,4305,4704,11600,01.189,552
2023-05-07T08:09:41,42.805,6.029,CST-1368DR,4305,4702,11597,01.190,552
2023-05-07T08:12:43,42.805,6.029,CST-1368DR,4305,4708,11611,01.185,551
2023-05-07T08:15:45,42.805,6.029,CST-1368DR,4305,4710,11615,01.184,551
2023-05-07T08:18:46,42.805,6.029,CST-1368DR,4305,4711,11619,01.183,552
2023-05-07T08:21:48,42.805,6.029,CST-1368DR,4305,4709,11613,01.185,551
2023-05-07T08:24:49,42.805,6.029,CST-1368DR,4305,4708,11611,01.185,552
2023-05-07T08:27:51,42.805,6.029,CST-1368DR,4305,4702,11596,01.191,552
2023-05-07T08:30:52,42.805,6.029,CST-1368DR,4305,4704,11602,01.188,552
2023-05-07T08:33:54,42.805,6.029,CST-1368DR,4305,4704,11602,01.188,552
2023-05-07T08:36:56,42.805,6.029,CST-1368DR,4305,4702,11595,01.191,552
2023-05-07T08:39:57,42.805,6.029,CST-1368DR,4305,4705,11603,01.188,551
2023-05-07T08:42:59,42.805,6.029,CST-1368DR,4305,4703,11599,01.190,552
2023-05-07T08:46:00,42.805,6.029,CST-1368DR,4305,4708,11611,01.185,551
2023-05-07T08:49:02,42.805,6.029,CST-1368DR,4305,4701,11593,01.192,552
2023-05-07T08:52:04,42.805,6.029,CST-1368DR,4305,4702,11597,01.190,552
2023-05-07T08:55:05,42.805,6.029,CST-1368DR,4305,4698,11585,01.194,552
2023-05-07T08:58:07,42.805,6.029,CST-1368DR,4305,4703,11598,01.190,551
2023-05-07T09:01:08,42.805,6.029,CST-1368DR,4305,4699,11588,01.193,552
2023-05-07T09:04:10,42.805,6.029,CST-1368DR,4305,4701,11593,01.192,552
2023-05-07T09:07:11,42.805,6.029,CST-1368DR,4305,4701,11593,01.192,552
2023-05-07T09:10:13,42.805,6.029,CST-1368DR,4305,4697,11584,01.195,552
2023-05-07T09:13:15,42.805,6.029,CST-1368DR,4305,4702,11597,01.190,551
2023-05-07T09:16:16,42.805,6.029,CST-1368DR,4305,4701,11594,01.191,551
2023-05-07T09:19:18,42.805,6.029,CST-1368DR,4305,4697,11583,01.195,552
2023-05-07T09:22:19,42.805,6.029,CST-1368DR,4305,4698,11586,01.194,552
2023-05-07T09:25:21,42.805,6.029,CST-1368DR,4304,4693,11576,01.197,552
2023-05-07T09:28:22,42.805,6.029,CST-1368DR,4305,4700,11591,01.192,552
2023-05-07T09:31:24,42.805,6.029,CST-1368DR,4304,4702,11598,01.190,552
2023-05-07T09:34:26,42.805,6.029,CST-1368DR,4305,4698,11587,01.194,552
2023-05-07T09:37:27,42.805,6.029,CST-1368DR,4305,4701,11595,01.191,552
2023-05-07T09:40:29,42.805,6.029,CST-1368DR,4305,4700,11591,01.192,551
2023-05-07T09:43:30,42.805,6.029,CST-1368DR,4305,4697,11584,01.195,552
2023-05-07T09:46:32,42.805,6.029,CST-1368DR,4305,4703,11598,01.190,552
2023-05-07T09:49:34,42.805,6.029,CST-1368DR,4305,4707,11609,01.186,551
2023-05-07T09:52:35,42.805,6.029,CST-1368DR,4305,4704,11600,01.189,551
2023-05-07T09:55:37,42.805,6.029,CST-1368DR,4305,4701,11593,01.192,552
2023-05-07T09:58:38,42.805,6.029,CST-1368DR,4304,4703,11600,01.189,552
2023-05-07T10:01:40,42.805,6.029,CST-1368DR,4305,4705,11604,01.188,551
2023-05-07T10:04:41,42.805,6.029,CST-1368DR,4305,4703,11598,01.190,552
2023-05-07T10:07:43,42.805,6.029,CST-1368DR,4304,4706,11608,01.186,552
2023-05-07T10:10:45,42.805,6.029,CST-1368DR,4305,4705,11604,01.188,551
2023-05-07T10:13:46,42.805,6.029,CST-1368DR,4305,4702,11597,01.190,552
2023-05-07T10:16:48,42.805,6.029,CST-1368DR,4305,4706,11605,01.187,552
2023-05-07T10:19:49,42.805,6.029,CST-1368DR,4304,4705,11605,01.187,552
2023-05-07T10:22:51,42.805,6.029,CST-1368DR,4304,4702,11600,01.189,551
2023-05-07T10:25:52,42.805,6.029,CST-1368DR,4304,4705,11605,01.187,551
2023-05-07T10:28:54,42.805,6.029,CST-1368DR,4305,4705,11603,01.188,552
2023-05-07T10:31:56,42.805,6.029,CST-1368DR,4305,4704,11601,01.189,552
2023-05-07T10:34:57,42.805,6.029,CST-1368DR,4305,4702,11596,01.191,552
2023-05-07T10:37:59,42.805,6.029,CST-1368DR,4304,4702,11599,01.190,552
2023-05-07T10:41:00,42.805,6.029,CST-1368DR,4305,4703,11599,01.190,551
2023-05-07T10:44:02,42.805,6.029,CST-1368DR,4305,4703,11599,01.190,551
2023-05-07T10:47:04,42.805,6.029,CST-1368DR,4305,4711,11619,01.183,552
2023-05-07T10:50:05,42.805,6.029,CST-1368DR,4304,4707,11610,01.186,551
2023-05-07T10:53:07,42.805,6.029,CST-1368DR,4305,4706,11606,01.187,552
2023-05-07T10:56:08,42.805,6.029,CST-1368DR,4305,4703,11599,01.190,551
2023-05-07T10:59:10,42.805,6.029,CST-1368DR,4304,4703,11601,01.189,552
2023-05-07T11:02:11,42.805,6.029,CST-1368DR,4305,4704,11600,01.189,552
2023-05-07T11:05:13,42.805,6.029,CST-1368DR,4305,4700,11591,01.192,552
2023-05-07T11:08:15,42.805,6.029,CST-1368DR,4305,4705,11604,01.188,552
2023-05-07T11:11:16,42.805,6.029,CST-1368DR,4305,4704,11600,01.189,551
2023-05-07T11:14:18,42.805,6.029,CST-1368DR,4304,4703,11602,01.188,552
2023-05-07T11:17:19,42.805,6.029,CST-1368DR,4304,4704,11603,01.188,552
2023-05-07T11:20:21,42.805,6.029,CST-1368DR,4305,4704,11601,01.189,552
2023-05-07T11:23:23,42.805,6.029,CST-1368DR,4304,4701,11596,01.191,551
2023-05-07T11:26:24,42.805,6.029,CST-1368DR,4305,4705,11603,01.188,551
2023-05-07T11:29:26,42.805,6.029,CST-1368DR,4305,4706,11606,01.187,552
2023-05-07T11:32:27,42.805,6.029,CST-1368DR,4304,4701,11595,01.191,552
2023-05-07T11:35:29,42.805,6.029,CST-1368DR,4304,4703,11600,01.189,552
2023-05-07T11:38:30,42.805,6.029,CST-1368DR,4304,4702,11600,01.189,552
2023-05-07T11:41:32,42.805,6.029,CST-1368DR,4304,4702,11600,01.189,552
2023-05-07T11:44:34,42.805,6.029,CST-1368DR,4304,4701,11596,01.191,552
2023-05-07T11:47:35,42.805,6.029,CST-1368DR,4304,4700,11593,01.192,552
2023-05-07T11:50:37,42.805,6.029,CST-1368DR,4305,4703,11598,01.190,552
2023-05-07T11:53:38,42.805,6.029,CST-1368DR,4304,4703,11602,01.188,551
2023-05-07T11:56:40,42.805,6.029,CST-1368DR,4304,4702,11599,01.190,552
2023-05-07T11:59:41,42.805,6.029,CST-1368DR,4305,4705,11604,01.188,552
2023-05-07T12:02:43,42.805,6.029,CST-1368DR,4304,4701,11595,01.191,552
2023-05-07T12:05:45,42.805,6.029,CST-1368DR,4304,4705,11605,01.187,552
2023-05-07T12:08:46,42.805,6.029,CST-1368DR,4304,4706,11609,01.186,552
2023-05-07T12:11:48,42.805,6.029,CST-1368DR,4305,4703,11598,01.190,552
2023-05-07T12:14:49,42.805,6.029,CST-1368DR,4304,4706,11608,01.186,551
2023-05-07T12:17:51,42.805,6.029,CST-1368DR,4304,4704,11603,01.188,552
2023-05-07T12:20:53,42.805,6.029,CST-1368DR,4304,4704,11605,01.187,552
2023-05-07T12:23:54,42.805,6.029,CST-1368DR,4304,4705,11605,01.187,552
2023-05-07T12:26:56,42.805,6.029,CST-1368DR,4304,4702,11599,01.190,552
2023-05-07T12:29:57,42.805,6.029,CST-1368DR,4304,4703,11601,01.189,552
2023-05-07T12:33:01,42.805,6.029,CST-1368DR,4304,4702,11599,01.190,551
2023-05-07T12:36:03,42.805,6.029,CST-1368DR,4304,4699,11590,01.193,552
2023-05-07T12:39:04,42.805,6.029,CST-1368DR,4304,4702,11598,01.190,552
2023-05-07T12:42:06,42.805,6.029,CST-1368DR,4304,4702,11599,01.190,551
2023-05-07T12:45:07,42.805,6.029,CST-1368DR,4304,4702,11600,01.189,552
2023-05-07T12:48:09,42.805,6.029,CST-1368DR,4304,4699,11590,01.193,552
2023-05-07T12:51:11,42.805,6.029,CST-1368DR,4304,4700,11594,01.191,551
2023-05-07T12:54:12,42.805,6.029,CST-1368DR,4304,4705,11606,01.187,552
2023-05-07T12:57:14,42.805,6.029,CST-1368DR,4304,4695,11582,01.195,552
2023-05-07T13:00:15,42.805,6.029,CST-1368DR,4304,4702,11598,01.190,552
2023-05-07T13:03:17,42.805,6.029,CST-1368DR,4304,4698,11588,01.193,551
2023-05-07T13:06:18,42.805,6.029,CST-1368DR,4304,4700,11595,01.191,552
2023-05-07T13:09:20,42.805,6.029,CST-1368DR,4304,4702,11600,01.189,552
2023-05-07T13:12:22,42.805,6.029,CST-1368DR,4304,4700,11593,01.192,552
2023-05-07T13:15:23,42.805,6.029,CST-1368DR,4304,4702,11598,01.190,552
2023-05-07T13:18:25,42.805,6.029,CST-1368DR,4304,4704,11603,01.188,552
2023-05-07T13:21:26,42.805,6.029,CST-1368DR,4304,4703,11600,01.189,552
2023-05-07T13:24:28,42.805,6.029,CST-1368DR,4304,4700,11593,01.192,552
2023-05-07T13:27:30,42.805,6.029,CST-1368DR,4304,4699,11591,01.192,552
2023-05-07T13:30:31,42.805,6.029,CST-1368DR,4304,4702,11599,01.190,552
2023-05-07T13:33:33,42.805,6.029,CST-1368DR,4304,4700,11593,01.192,552
2023-05-07T13:36:34,42.805,6.029,CST-1368DR,4304,4699,11592,01.192,552
2023-05-07T13:39:36,42.805,6.029,CST-1368DR,4304,4702,11599,01.190,552
2023-05-07T13:42:37,42.805,6.029,CST-1368DR,4304,4703,11601,01.189,551
2023-05-07T13:45:39,42.805,6.029,CST-1368DR,4304,4703,11602,01.188,552
2023-05-07T13:48:41,42.805,6.029,CST-1368DR,4304,4702,11598,01.190,552
2023-05-07T13:51:42,42.805,6.029,CST-1368DR,4304,4702,11598,01.190,552
2023-05-07T13:54:44,42.805,6.029,CST-1368DR,4304,4701,11597,01.190,552
2023-05-07T13:57:45,42.805,6.029,CST-1368DR,4304,4700,11594,01.191,552
2023-05-07T14:00:47,42.805,6.029,CST-1368DR,4304,4703,11600,01.189,552
2023-05-07T14:03:48,42.805,6.029,CST-1368DR,4304,4700,11594,01.191,551
2023-05-07T14:06:50,42.805,6.029,CST-1368DR,4304,4702,11599,01.190,552
2023-05-07T14:09:52,42.805,6.029,CST-1368DR,4304,4698,11588,01.193,551
2023-05-07T14:12:53,42.805,6.029,CST-1368DR,4304,4701,11595,01.191,552
2023-05-07T14:15:55,42.805,6.029,CST-1368DR,4304,4703,11601,01.189,551
2023-05-07T14:18:56,42.805,6.029,CST-1368DR,4304,4705,11607,01.187,552
2023-05-07T14:21:58,42.805,6.029,CST-1368DR,4304,4704,11605,01.187,552
2023-05-07T14:25:00,42.805,6.029,CST-1368DR,4304,4707,11611,01.185,552
2023-05-07T14:28:01,42.805,6.029,CST-1368DR,4304,4705,11606,01.187,552
2023-05-07T14:31:04,42.805,6.029,CST-1368DR,4304,4705,11606,01.187,552
2023-05-07T14:34:05,42.805,6.029,CST-1368DR,4304,4706,11608,01.186,552
2023-05-07T14:37:07,42.805,6.029,CST-1368DR,4304,4705,11606,01.187,551
2023-05-07T14:40:08,42.805,6.029,CST-1368DR,4304,4706,11609,01.186,552
2023-05-07T14:43:10,42.805,6.029,CST-1368DR,4304,4707,11611,01.185,552
2023-05-07T14:46:12,42.805,6.029,CST-1368DR,4304,4700,11595,01.191,552
2023-05-07T14:49:13,42.805,6.029,CST-1368DR,4304,4706,11608,01.186,551
2023-05-07T14:52:15,42.805,6.029,CST-1368DR,4304,4703,11600,01.189,552
2023-05-07T14:55:16,42.805,6.029,CST-1368DR,4304,4700,11593,01.192,552
2023-05-07T14:58:18,42.805,6.029,CST-1368DR,4304,4704,11603,01.188,552
2023-05-07T15:01:19,42.805,6.029,CST-1368DR,4304,4705,11606,01.187,551
2023-05-07T15:04:21,42.805,6.029,CST-1368DR,4304,4702,11598,01.190,551
2023-05-07T15:07:23,42.805,6.029,CST-1368DR,4304,4702,11599,01.190,552
2023-05-07T15:10:24,42.805,6.029,CST-1368DR,4304,4703,11601,01.189,552
2023-05-07T15:13:26,42.805,6.029,CST-1368DR,4304,4701,11595,01.191,551
2023-05-07T15:16:27,42.805,6.029,CST-1368DR,4304,4704,11603,01.188,552
2023-05-07T15:19:29,42.805,6.029,CST-1368DR,4304,4703,11601,01.189,551
2023-05-07T15:22:31,42.805,6.029,CST-1368DR,4304,4704,11605,01.187,552
2023-05-07T15:25:32,42.805,6.029,CST-1368DR,4304,4703,11601,01.189,551
2023-05-07T15:28:34,42.805,6.029,CST-1368DR,4304,4705,11607,01.187,552
2023-05-07T15:31:35,42.805,6.029,CST-1368DR,4304,4702,11600,01.189,552
2023-05-07T15:34:37,42.805,6.029,CST-1368DR,4304,4703,11600,01.189,552
2023-05-07T15:37:38,42.805,6.029,CST-1368DR,4304,4703,11601,01.189,551
2023-05-07T15:40:40,42.805,6.029,CST-1368DR,4304,4705,11606,01.187,551
2023-05-07T15:43:42,42.805,6.029,CST-1368DR,4304,4702,11600,01.189,552
2023-05-07T15:46:43,42.805,6.029,CST-1368DR,4304,4704,11603,01.188,551
2023-05-07T15:49:45,42.805,6.029,CST-1368DR,4304,4701,11597,01.190,552
2023-05-07T15:52:46,42.805,6.029,CST-1368DR,4304,4701,11597,01.190,551
2023-05-07T15:55:48,42.805,6.029,CST-1368DR,4304,4702,11598,01.190,552
2023-05-07T15:58:49,42.805,6.029,CST-1368DR,4304,4703,11600,01.189,552
2023-05-07T16:01:51,42.805,6.029,CST-1368DR,4304,4701,11597,01.190,552
2023-05-07T16:04:53,42.805,6.029,CST-1368DR,4304,4700,11593,01.192,552
2023-05-07T16:07:54,42.805,6.029,CST-1368DR,4304,4702,11598,01.190,552
2023-05-07T16:10:56,42.805,6.029,CST-1368DR,4304,4700,11595,01.191,552
2023-05-07T16:13:57,42.805,6.029,CST-1368DR,4304,4704,11603,01.188,551
2023-05-07T16:16:59,42.805,6.029,CST-1368DR,4304,4701,11595,01.191,552
2023-05-07T16:20:01,42.805,6.029,CST-1368DR,4304,4700,11595,01.191,552
2023-05-07T16:23:02,42.805,6.029,CST-1368DR,4304,4701,11596,01.191,552
2023-05-07T16:26:04,42.805,6.029,CST-1368DR,4304,4701,11596,01.191,552
2023-05-07T16:29:05,42.805,6.029,CST-1368DR,4304,4700,11593,01.192,552
2023-05-07T16:32:07,42.805,6.029,CST-1368DR,4304,4700,11593,01.192,552
2023-05-07T16:35:08,42.805,6.029,CST-1368DR,4304,4700,11595,01.191,552
2023-05-07T16:38:10,42.805,6.029,CST-1368DR,4304,4704,11603,01.188,552